Location: Peterborough
(44.3091°N, 78.3197°W)
Time: 03:11:56
(UTC-04:00)

S-56A Canister/Altair - Pass Details

Date: 31 March 2023
Orbit: 639 x 2492 km, 38.9° (Epoch: 08 June)

Event Time Altitude Azimuth Distance (km) Brightness Sun altitude
Rises 16:34:56 0° 200° (SSW) 3,966 11.8 31.1°
Reaches altitude 10° 16:37:56 10° 186° (S) 3,266 11.3 30.7°
Maximum altitude 16:44:26 25° 135° (SE) 2,812 10.4 29.6°
Drops below altitude 10° 16:53:02 10° 87° (E) 4,437 11.0 28.2°
Sets 16:57:57 0° 77° (ENE) 5,723 11.4 27.4°
